Flag for Cayman Islands Weather past 2 weeks in George Town, Cayman Islands

Now
84 °F

Passing clouds.


Feels Like: 96 °F
Forecast: 84 / 87 °F
Wind: 7 mph from Northeast

Location: Cayo Largo Del Sur

Current Time: Jul 25, 2014 at 7:05:54 AM

Latest Report: Jul 25, 2014 at 5:54 AM


Visibility: 6 mi

Pressure: 30.01 "Hg

Humidity: 84%

Dew point: 79 °F

Location of George TownLocation

Historic Weather in George Town — Graph

°F

George Town temperature yesterday

Maximum temperature yesterday: 90 °F (at 11:51 AM)
Minimum temperature yesterday: 81 °F (at 5:52 AM)
Average temperature yesterday: 86 °F

Past Weeks' High & Low Weather Summary

 TemperatureHumidityPressure
High90 °F (Jul 11, 3:52 PM)100% (Jul 12, 5:59 AM)30.09 "Hg (Jul 12, 5:59 AM)
Low79 °F (Jul 11, 7:54 PM)49% (Jul 11, 3:52 PM)29.95 "Hg (Jul 15, 4:51 PM)
Average85 °F73%30.02 "Hg
* Reported Jul 10 5:05 AM — Jul 25 5:54 AM, George Town, Weather by CustomWeather, © 2014

Note: Actual official high and low records may vary slightly from our data, if they occured in-between our weather recording intervals... More about our weather records

Advertising

George Town weather history for previous 24 hours

 ConditionsComfort  
Time TempWeatherWind HumidityBarometerVisibility
5:54 AM
Jul 25
84 °FPassing clouds.7 mph84%30.01 "Hg6 mi
4:52 AM84 °FPassing clouds.8 mph74%30.01 "Hg6 mi
4:05 AM82 °FWarm.6 mph79%30.01 "HgN/A
3:05 AM84 °FWarm.8 mph74%30.01 "HgN/A
2:05 AM84 °FWarm.8 mph74%30.01 "HgN/A
1:05 AM84 °FWarm.6 mph74%30.01 "HgN/A
12:05 AM84 °FWarm.6 mph79%30.04 "HgN/A
11:05 PM
Jul 24
84 °FWarm.6 mph84%30.04 "HgN/A
10:05 PM84 °FWarm.3 mph84%30.01 "HgN/A
9:05 PM84 °FWarm.5 mph79%30.01 "HgN/A
8:05 PM84 °FWarm.5 mph79%30.01 "HgN/A
7:05 PM86 °FWarm.5 mph70%30.01 "HgN/A
5:51 PM88 °FPassing clouds.6 mph62%29.98 "HgN/A
4:52 PM90 °FPassing clouds.8 mph59%29.98 "HgN/A
3:53 PM90 °FPassing clouds.6 mph55%29.98 "HgN/A
2:51 PM90 °FPassing clouds.6 mph59%29.98 "HgN/A
1:51 PM90 °FPassing clouds.9 mph59%29.98 "HgN/A
12:51 PM88 °FScattered clouds.9 mph62%30.01 "HgN/A
11:51 AM90 °FPassing clouds.8 mph59%30.04 "HgN/A
10:50 AM88 °FPassing clouds.9 mph62%30.04 "HgN/A
9:52 AM88 °FPassing clouds.10 mph66%30.01 "HgN/A
8:50 AM86 °FScattered clouds.9 mph75%30.01 "HgN/A
7:54 AM84 °FScattered clouds.8 mph89%30.01 "Hg6 mi
Weather by CustomWeather, © 2014

See weather overviewHow to use our weather pages